Overview Statistics Trail Chart Weather Telemetry Raw packets
 

This is the latest recevied weather packets stored in our database for station/object W7BTL. If no packets are shown the sender has not sent any weather packets the latest 10 day(s).

<< 86 87 88 89 90 91 92 >>
Time Temp. Humidity Pressure Rain* Wind** Luminosity Snow
1788023754 30.56° C 62% 1012.2 hPa 0 mm - 716 W/m² -
1788023449 30.56° C 63% 1012.6 hPa 0 mm - 428 W/m² -
1788023144 30.56° C 62% 1012.6 hPa 0 mm - 543 W/m² -
1788022839 30° C 63% 1012.4 hPa 0 mm - 724 W/m² -
1788022536 30.56° C 61% 1012.4 hPa 0 mm - 170 W/m² -
1788022232 30.56° C 64% 1012.2 hPa 0 mm - 426 W/m² -
1788021930 30° C 63% 1012.4 hPa 0 mm - 374 W/m² -
1788021625 29.44° C 65% 1012.3 hPa 0 mm - 597 W/m² -
1788021323 30° C 63% 1012.2 hPa 0 mm - 178 W/m² -
1788021018 29.44° C 66% 1012.1 hPa 0 mm - 416 W/m² -
1788020713 28.33° C 69% 1012 hPa 0 mm - 521 W/m² -
1788020408 28.89° C 67% 1012.1 hPa 0 mm - 325 W/m² -
1788020104 29.44° C 65% 1012.2 hPa 0 mm - 360 W/m² -
1788019804 29.44° C 66% 1011.8 hPa 0 mm - 384 W/m² -
1788019504 29.44° C 66% 1011.9 hPa 0 mm - 443 W/m² -
1788019203 29.44° C 67% 1011.8 hPa 0 mm - 422 W/m² -
1788018902 28.89° C 69% 1011.8 hPa 0 mm - 386 W/m² -
1788018597 28.89° C 70% 1011.8 hPa 0 mm - 348 W/m² -
1788018296 28.33° C 70% 1012.1 hPa 0 mm - 327 W/m² -
1788017992 27.78° C 74% 1012 hPa 0 mm - 304 W/m² -
1788017688 28.33° C 76% 1012 hPa 0 mm - 281 W/m² -
1788017384 28.33° C 73% 1011.9 hPa 0 mm - 262 W/m² -
1788017081 28.33° C 74% 1011.8 hPa 0 mm - 69 W/m² -
1788016780 28.33° C 75% 1011.6 hPa 0 mm - 222 W/m² -
1788016478 27.78° C 76% 1011.8 hPa 0 mm - 66 W/m² -

* Rain latest hour (hover to see other rain measurements)
** Current wind speed in m/s (hover to see current wind gust speed)